STARLINK-11442, 62885

Orbit data source: Space-Track

STARLINK-11442, 62885 is a payload satellite owned by SpaceX/Seattle (US) in LEO that was launched on Tue, 04 Feb 2025 UTC via an FALCON 9 launch vehicle from the Air Force Eastern Test Range (AFETR). Payload-class satellites include a variety of spacecraft equipped with specific instruments for various scientific and technological missions. These include communications satellites like Starlink; space stations such as the ISS; scientific satellites like the Hubble; Earth observation satellites from companies like Planet Labs, Umbra, and HawkEye 360; GPS; miniature CubeSats for education and research; and military/defense satellites.

Loading next visibility...
Identifier
62885, 2025-024G
Orbit
LEO
Country
Flag of USUS
Related business
Manufacturer
SpaceX/Seattle
Mission
Operational Commercial Communications
Bus & Motor
STARLINK V2MD, Unknown motor
Mass
960 kg wet, ~910 kg dry
Launch date (UTC)
2025-02-04 (1 year ago)
Launch vehicle
FALCON 9
Launch site
Air Force Eastern Test Range (AFETR)
Object type
Payload
Rocket body
Debris
Shape & HBR
Box + 2 Pan, 18.1 m
Radar Cross Section
36.964 m², Large (>1 m²)

Expand to show TLE details & history
Last TLE update: 17 hours ago

TLE from 17 hours ago
0 STARLINK-11442
1 62885U 25024G   26095.15821234  .00230098  00000-0  17456-2 0  9997
2 62885  43.0013  21.5335 0002231 260.0686  99.9930 15.70865442 67630
Epoch: 2026-04-05T03:47Z
TLE epoch observation values (Epoch: 2026-04-05T03:47:49.546Z)
Latitude
Longitude
131.10941°
Altitude
356.455 km
Speed
7.697 km/s
True Right ascension
01h 26m 08s
True Declination
0° 00' 00"
Sunlit
Object was in daylight at epoch
Visualization orbit readout
Latitude
Unknown
Longitude
Unknown
Altitude
Unknown
Speed
Unknown
Apparent Right ascension
Unknown
Apparent Declination
Unknown
Sunlit
N/A
Visualization observer readout
Local Sidereal Time
02:25:21
Azimuth
Unknown
Elevation
Unknown
Doppler factor
Unknown
Orbital elements
Apogee altitude
359.907 km
Perigee altitude
356.901 km
Semi-major axis
6,736.541 km
Eccentricity
0.00022
Inclination
43.0013°
RAAN
21.5335°
Arg. of periapsis
260.0686°
True anomaly
100.01818°
Mean anomaly
99.993°
Eccentric anomaly
100.00559°
Mean motion
3.92543 °/min
Orbital period
91.71 mins
BSTAR
0.0017456
Loading maneuver chart data...
Computing Atmospheric mass density...
Loading historical data...
Loading historical data...
Loading historical data...
Loading historical data...
Loading historical data...
Loading historical data...
Loading historical data...

Documentation

Showing up to 5 results
|